TimeCDT,TemperatureF,Dew PointF,Humidity,Sea Level PressureIn,VisibilityMPH,Wind Direction,Wind SpeedMPH,Gust SpeedMPH,PrecipitationIn,Events,Conditions,WindDirDegrees,DateUTC
12:15 AM,68.0,53.6,60,29.97,10.0,SE,13.8,18.4,N/A,,Clear,130,2012-10-04 05:15:00
12:35 AM,66.2,53.6,64,29.97,10.0,SE,12.7,-,N/A,,Clear,130,2012-10-04 05:35:00
12:55 AM,66.2,53.6,64,29.97,10.0,SE,15.0,-,N/A,,Clear,140,2012-10-04 05:55:00
1:15 AM,64.4,53.6,68,29.97,10.0,SE,15.0,-,N/A,,Clear,140,2012-10-04 06:15:00
1:35 AM,66.2,53.6,64,29.96,10.0,SE,15.0,21.9,N/A,,Clear,140,2012-10-04 06:35:00
1:55 AM,64.4,53.6,68,29.97,10.0,SE,12.7,-,N/A,,Clear,130,2012-10-04 06:55:00
2:15 AM,64.4,53.6,68,29.97,10.0,SE,15.0,-,N/A,,Clear,140,2012-10-04 07:15:00
2:35 AM,64.4,53.6,68,29.97,10.0,SE,16.1,-,N/A,,Clear,140,2012-10-04 07:35:00
2:55 AM,64.4,53.6,68,29.97,10.0,SE,15.0,-,N/A,,Clear,140,2012-10-04 07:55:00
3:15 AM,64.4,53.6,68,29.97,10.0,SE,15.0,-,N/A,,Clear,140,2012-10-04 08:15:00
3:35 AM,64.4,53.6,68,29.97,10.0,SE,13.8,-,N/A,,Clear,140,2012-10-04 08:35:00
3:55 AM,64.4,53.6,68,29.97,10.0,SE,13.8,-,N/A,,Clear,140,2012-10-04 08:55:00
4:35 AM,64.4,53.6,68,29.97,10.0,SE,15.0,-,N/A,,Clear,140,2012-10-04 09:35:00
4:55 AM,64.4,53.6,68,29.97,10.0,SE,15.0,-,N/A,,Clear,140,2012-10-04 09:55:00
5:15 AM,64.4,53.6,68,29.98,10.0,SE,16.1,-,N/A,,Clear,130,2012-10-04 10:15:00
5:35 AM,64.4,53.6,68,29.99,10.0,SE,13.8,-,N/A,,Clear,130,2012-10-04 10:35:00
5:55 AM,62.6,53.6,72,30.00,10.0,ESE,9.2,-,N/A,,Clear,110,2012-10-04 10:55:00
6:15 AM,62.6,53.6,72,30.05,10.0,NE,3.5,-,N/A,,Clear,40,2012-10-04 11:15:00
6:35 AM,59.0,53.6,82,30.05,10.0,East,4.6,-,N/A,,Clear,100,2012-10-04 11:35:00
6:55 AM,59.0,53.6,82,30.07,10.0,North,9.2,-,N/A,,Clear,350,2012-10-04 11:55:00
7:15 AM,59.0,53.6,82,30.09,10.0,North,9.2,-,N/A,,Clear,360,2012-10-04 12:15:00
7:35 AM,60.8,53.6,77,30.08,10.0,ENE,8.1,-,N/A,,Clear,60,2012-10-04 12:35:00
7:55 AM,60.8,53.6,77,30.09,10.0,NE,5.8,-,N/A,,Clear,50,2012-10-04 12:55:00
8:15 AM,60.8,55.4,82,30.10,10.0,ENE,8.1,-,N/A,,Clear,60,2012-10-04 13:15:00
8:35 AM,62.6,55.4,77,30.11,10.0,NE,8.1,-,N/A,,Clear,50,2012-10-04 13:35:00
9:15 AM,66.2,55.4,68,30.12,10.0,East,8.1,-,N/A,,Clear,80,2012-10-04 14:15:00
9:35 AM,68.0,57.2,68,30.14,10.0,NE,5.8,-,N/A,,Clear,50,2012-10-04 14:35:00
9:55 AM,68.0,57.2,68,30.15,10.0,NNE,4.6,-,N/A,,Clear,30,2012-10-04 14:55:00
10:15 AM,64.4,51.8,64,30.15,7.0,North,23.0,32.2,N/A,,Mostly Cloudy,360,2012-10-04 15:15:00
10:35 AM,60.8,46.4,59,30.17,5.0,North,24.2,34.5,N/A,,Haze,10,2012-10-04 15:35:00
10:55 AM,59.0,44.6,59,30.17,7.0,North,25.3,32.2,N/A,,Mostly Cloudy,10,2012-10-04 15:55:00
11:15 AM,59.0,42.8,55,30.18,7.0,North,26.5,31.1,N/A,,Mostly Cloudy,10,2012-10-04 16:15:00
11:35 AM,59.0,42.8,55,30.19,10.0,North,26.5,29.9,N/A,,Mostly Cloudy,10,2012-10-04 16:35:00
11:55 AM,59.0,42.8,55,30.20,7.0,NNE,26.5,33.4,N/A,,Mostly Cloudy,20,2012-10-04 16:55:00
12:15 PM,59.0,42.8,55,30.20,10.0,NNE,21.9,32.2,N/A,,Mostly Cloudy,20,2012-10-04 17:15:00
12:35 PM,59.0,42.8,55,30.21,10.0,NNE,18.4,27.6,N/A,,Mostly Cloudy,20,2012-10-04 17:35:00
12:55 PM,59.0,42.8,55,30.21,10.0,North,19.6,25.3,N/A,,Mostly Cloudy,10,2012-10-04 17:55:00
1:15 PM,59.0,42.8,55,30.21,10.0,NNE,18.4,24.2,N/A,,Mostly Cloudy,20,2012-10-04 18:15:00
1:35 PM,59.0,42.8,55,30.20,10.0,North,20.7,-,N/A,,Overcast,10,2012-10-04 18:35:00
2:15 PM,59.0,44.6,59,30.20,10.0,NNE,21.9,25.3,N/A,,Mostly Cloudy,20,2012-10-04 19:15:00
2:35 PM,59.0,44.6,59,30.19,10.0,North,18.4,-,N/A,,Overcast,360,2012-10-04 19:35:00
2:55 PM,59.0,44.6,59,30.20,10.0,North,18.4,24.2,N/A,,Overcast,10,2012-10-04 19:55:00
3:15 PM,60.8,44.6,55,30.18,10.0,North,20.7,-,N/A,,Overcast,10,2012-10-04 20:15:00
3:35 PM,60.8,44.6,55,30.18,10.0,North,18.4,24.2,N/A,,Mostly Cloudy,10,2012-10-04 20:35:00
3:55 PM,60.8,44.6,55,30.18,10.0,North,18.4,21.9,N/A,,Mostly Cloudy,10,2012-10-04 20:55:00
4:15 PM,60.8,44.6,55,30.18,10.0,North,18.4,23.0,N/A,,Overcast,10,2012-10-04 21:15:00
4:35 PM,60.8,44.6,55,30.18,10.0,NNE,15.0,20.7,N/A,,Overcast,20,2012-10-04 21:35:00
5:15 PM,60.8,42.8,52,30.19,10.0,NNE,16.1,-,N/A,,Overcast,20,2012-10-04 22:15:00
5:35 PM,62.6,44.6,52,30.18,10.0,NNE,11.5,-,N/A,,Overcast,20,2012-10-04 22:35:00
5:55 PM,62.6,44.6,52,30.18,10.0,NNE,11.5,-,N/A,,Overcast,30,2012-10-04 22:55:00
6:15 PM,62.6,44.6,52,30.19,10.0,NNE,10.4,-,N/A,,Overcast,30,2012-10-04 23:15:00
6:35 PM,62.6,44.6,52,30.18,10.0,NNE,11.5,-,N/A,,Overcast,30,2012-10-04 23:35:00
6:55 PM,62.6,42.8,48,30.18,10.0,NE,10.4,-,N/A,,Overcast,40,2012-10-04 23:55:00
7:15 PM,60.8,42.8,52,30.18,10.0,NE,10.4,-,N/A,,Overcast,40,2012-10-05 00:15:00
7:55 PM,60.8,42.8,52,30.18,10.0,NE,8.1,-,N/A,,Mostly Cloudy,40,2012-10-05 00:55:00
8:15 PM,60.8,42.8,52,30.18,10.0,NNE,11.5,-,N/A,,Overcast,20,2012-10-05 01:15:00
8:35 PM,60.8,42.8,52,30.18,10.0,North,8.1,-,N/A,,Overcast,10,2012-10-05 01:35:00
9:15 PM,60.8,42.8,52,30.18,10.0,NE,9.2,-,N/A,,Overcast,40,2012-10-05 02:15:00
9:35 PM,60.8,42.8,52,30.18,10.0,North,9.2,-,N/A,,Overcast,10,2012-10-05 02:35:00
9:55 PM,60.8,42.8,52,30.19,10.0,NNE,9.2,-,N/A,,Mostly Cloudy,20,2012-10-05 02:55:00
10:15 PM,60.8,42.8,52,30.19,10.0,NNE,8.1,-,N/A,,Mostly Cloudy,30,2012-10-05 03:15:00
10:35 PM,60.8,42.8,52,30.19,10.0,NNE,11.5,-,N/A,,Mostly Cloudy,30,2012-10-05 03:35:00
10:55 PM,60.8,42.8,52,30.19,10.0,NNE,9.2,-,N/A,,Mostly Cloudy,30,2012-10-05 03:55:00
11:15 PM,60.8,42.8,52,30.18,10.0,NE,11.5,-,N/A,,Mostly Cloudy,40,2012-10-05 04:15:00
11:35 PM,60.8,42.8,52,30.18,10.0,NNE,9.2,-,N/A,,Mostly Cloudy,30,2012-10-05 04:35:00
11:55 PM,60.8,42.8,52,30.19,10.0,NNE,10.4,-,N/A,,Mostly Cloudy,30,2012-10-05 04:55:00